Terminal Aerodrome Forecast
Issued by NWS

Home | Current Version | Previous Version | Graphics & Text | Print | Product List | Glossary On
Versions: 1 2 3 4 5 6 7 8 9 10 11 12 13 14 15 16 17 18 19
000
FTUS43 KABR 181559 AAC
TAFATY
TAF AMD
KATY 181559Z 1816/1912 33018G26KT P6SM BKN024
     FM181900 33017G25KT P6SM SCT030
     FM190200 32010KT P6SM FEW250
     FM190700 23005KT P6SM FEW250=

USA.gov is the U.S. government's official web portal to all federal, state and local government web resources and services.